| time (UTC) | temp F | wind direction | speed MPH | gust MPH | rain 1hr in | rain 24hr in | rain mn in | humidity % | barometer mb |
| 20260503221003 | 81 | 340 | 9.0 | 13.0 | 0.00 | 0.00 | 0.00 | 22 | |
| 20260503220003 | 81 | 340 | 9.0 | 12.0 | 0.00 | 0.00 | 0.00 | 27 | |
| 20260503215003 | 80 | 355 | 6.0 | 7.0 | 0.00 | 0.00 | 0.00 | 18 | |
| 20260503214003 | 81 | 35 | 4.0 | 5.0 | 0.00 | 0.00 | 0.00 | 18 | |
| 20260503213003 | 83 | 55 | 3.0 | 7.0 | 0.00 | 0.00 | 0.00 | 16 | |
| 20260503212003 | 84 | 70 | 7.0 | 8.0 | 0.00 | 0.00 | 0.00 | 14 | |
| 20260503211002 | 84 | 65 | 6.0 | 7.0 | 0.00 | 0.00 | 0.00 | 16 | |
| 20260503210003 | 83 | 70 | 6.0 | 7.0 | 0.00 | 0.00 | 0.00 | 18 | |
| 20260503205003 | 80 | 55 | 4.0 | 6.0 | 0.00 | 0.00 | 0.00 | 24 | |
| 20260503204003 | 80 | 55 | 4.0 | 6.0 | 0.00 | 0.00 | 0.00 | 25 | |
| 20260503203003 | 81 | 60 | 5.0 | 7.0 | 0.00 | 0.00 | 0.00 | 25 | |
| 20260503202004 | 80 | 65 | 5.0 | 7.0 | 0.00 | 0.00 | 0.00 | 27 | |
| 20260503201002 | 80 | 70 | 6.0 | 8.0 | 0.00 | 0.00 | 0.00 | 25 | |
| 20260503200003 | 79 | 70 | 7.0 | 8.0 | 0.00 | 0.00 | 0.00 | 27 | |
| 20260503195003 | 79 | 75 | 6.0 | 9.0 | 0.00 | 0.00 | 0.00 | 28 | |
| 20260503194003 | 77 | 70 | 9.0 | 10.0 | 0.00 | 0.00 | 0.00 | 28 | |
| 20260503193003 | 77 | 75 | 10.0 | 11.0 | 0.00 | 0.00 | 0.00 | 29 | |
| 20260503192003 | 77 | 65 | 8.0 | 11.0 | 0.00 | 0.00 | 0.00 | 28 | |
| 20260503191003 | 77 | 75 | 10.0 | 12.0 | 0.00 | 0.00 | 0.00 | 27 | |
| 20260503190004 | 76 | 70 | 11.0 | 14.0 | 0.00 | 0.00 | 0.00 | 27 | |
| 20260503185002 | 75 | 70 | 13.0 | 15.0 | 0.00 | 0.00 | 0.00 | 29 | |
| 20260503184003 | 75 | 70 | 13.0 | 16.0 | 0.00 | 0.00 | 0.00 | 29 | |
| 20260503183003 | 74 | 70 | 13.0 | 17.0 | 0.00 | 0.00 | 0.00 | 29 | |
| 20260503182003 | 74 | 70 | 14.0 | 16.0 | 0.00 | 0.00 | 0.00 | 29 | |
| 20260503181003 | 73 | 70 | 14.0 | 16.0 | 0.00 | 0.00 | 0.00 | 29 | |
| 20260503180004 | 73 | 70 | 13.0 | 16.0 | 0.00 | 0.00 | 0.00 | 28 | |
| 20260503175003 | 73 | 75 | 15.0 | 18.0 | 0.00 | 0.00 | 0.00 | 29 | |
| 20260503174002 | 72 | 80 | 15.0 | 18.0 | 0.00 | 0.00 | 0.00 | 29 | |
| 20260503173003 | 72 | 75 | 16.0 | 20.0 | 0.00 | 0.00 | 0.00 | 30 | |
| 20260503172003 | 71 | 80 | 19.0 | 21.0 | 0.00 | 0.00 | 0.00 | 31 | |
| 20260503171003 | 70 | 80 | 19.0 | 21.0 | 0.00 | 0.00 | 0.00 | 33 | |
| 20260503151003 | 66 | 80 | 22.0 | 24.0 | 0.00 | 0.00 | 0.00 | 40 | |
| 20260503131003 | 63 | 65 | 14.0 | 19.0 | 0.00 | 0.00 | 0.00 | 57 | |
| 20260503081002 | 56 | 50 | 2.0 | 4.0 | 0.00 | 0.00 | 0.00 | 89 | |
| 20260503072003 | 54 | 145 | 4.0 | 6.0 | 0.00 | 0.00 | 0.00 | 95 | |
| 20260503071002 | 54 | 135 | 2.0 | 2.0 | 0.00 | 0.00 | 0.00 | 94 | |
| 20260503055003 | 57 | 105 | 1.0 | 3.0 | 0.00 | 0.00 | 0.00 | 87 | |
| 20260503054003 | 57 | 120 | 2.0 | 3.0 | 0.00 | 0.00 | 0.00 | 86 | |
| 20260503053002 | 57 | 145 | 1.0 | 2.0 | 0.00 | 0.00 | 0.00 | 88 | |
| 20260503052003 | 56 | 180 | 2.0 | 4.0 | 0.00 | 0.00 | 0.00 | 88 | |
| 20260503051003 | 56 | 235 | 2.0 | 4.0 | 0.00 | 0.00 | 0.00 | 88 | |
| 20260503050003 | 57 | 115 | 0.0 | 4.0 | 0.00 | 0.00 | 0.00 | 85 | |
| 20260503045003 | 57 | 205 | 2.0 | 4.0 | 0.00 | 0.00 | 0.00 | 87 | |
| 20260503044003 | 56 | 185 | 3.0 | 8.0 | 0.00 | 0.00 | 0.00 | 89 | |
| 20260503043004 | 55 | 225 | 7.0 | 8.0 | 0.00 | 0.00 | 0.00 | 90 | |
| 20260503042002 | 55 | 230 | 7.0 | 8.0 | 0.00 | 0.00 | 0.00 | 89 | |
| 20260503041002 | 55 | 220 | 7.0 | 8.0 | 0.00 | 0.00 | 0.00 | 90 | |
| 20260503040003 | 55 | 220 | 8.0 | 9.0 | 0.00 | 0.00 | 0.00 | 89 | |
| 20260503035003 | 56 | 225 | 8.0 | 10.0 | 0.00 | 0.00 | 0.00 | 88 | |
| 20260503034003 | 56 | 225 | 8.0 | 10.0 | 0.00 | 0.00 | 0.00 | 86 | |
| 20260503033003 | 56 | 225 | 9.0 | 12.0 | 0.00 | 0.00 | 0.00 | 86 | |
| 20260503032003 | 55 | 230 | 10.0 | 13.0 | 0.00 | 0.00 | 0.00 | 87 | |
| 20260503031002 | 55 | 245 | 11.0 | 14.0 | 0.00 | 0.00 | 0.00 | 91 | |
| 20260503030003 | 55 | 265 | 8.0 | 13.0 | 0.00 | 0.00 | 0.00 | 91 | |
| 20260503025002 | 55 | 275 | 10.0 | 14.0 | 0.00 | 0.00 | 0.00 | 90 | |
| 20260503024003 | 56 | 280 | 11.0 | 15.0 | 0.00 | 0.00 | 0.00 | 88 | |
| 20260503023003 | 56 | 285 | 12.0 | 15.0 | 0.00 | 0.00 | 0.00 | 86 | |
| 20260503022004 | 58 | 285 | 12.0 | 14.0 | 0.00 | 0.00 | 0.00 | 82 | |
| 20260503021003 | 57 | 290 | 7.0 | 15.0 | 0.00 | 0.00 | 0.00 | 82 | |
| 20260503020004 | 57 | 290 | 13.0 | 15.0 | 0.00 | 0.00 | 0.00 | 82 | |
| 20260503015003 | 57 | 290 | 14.0 | 16.0 | 0.00 | 0.00 | 0.00 | 80 | |
| 20260503014003 | 58 | 290 | 14.0 | 16.0 | 0.00 | 0.00 | 0.00 | 79 | |
| 20260503013003 | 58 | 290 | 12.0 | 14.0 | 0.00 | 0.00 | 0.00 | 80 | |
| 20260503012003 | 57 | 285 | 10.0 | 15.0 | 0.00 | 0.00 | 0.00 | 82 | |
| 20260503011003 | 56 | 280 | 11.0 | 14.0 | 0.00 | 0.00 | 0.00 | 86 | |
| 20260503010004 | 56 | 285 | 10.0 | 15.0 | 0.00 | 0.00 | 0.00 | 87 | |
| 20260503005002 | 55 | 285 | 12.0 | 17.0 | 0.00 | 0.00 | 0.00 | 92 | |
| 20260503004003 | 55 | 290 | 10.0 | 15.0 | 0.00 | 0.00 | 0.00 | 93 | |
| 20260503003003 | 54 | 290 | 11.0 | 15.0 | 0.00 | 0.00 | 0.00 | 94 | |
| 20260503002003 | 54 | 290 | 12.0 | 17.0 | 0.00 | 0.00 | 0.00 | 94 | |
| 20260503001003 | 54 | 285 | 11.0 | 17.0 | 0.00 | 0.00 | 0.00 | 94 | |
| 20260503000003 | 54 | 280 | 12.0 | 15.0 | 0.00 | 0.00 | 0.00 | 93 | |
| 20260502235002 | 54 | 290 | 13.0 | 17.0 | 0.00 | 0.00 | 0.00 | 93 | |
| 20260502234003 | 54 | 295 | 16.0 | 18.0 | 0.00 | 0.00 | 0.00 | 95 | |
| 20260502233008 | 54 | 290 | 16.0 | 18.0 | 0.00 | 0.00 | 0.00 | 93 | |
| 20260502232004 | 55 | 285 | 13.0 | 17.0 | 0.00 | 0.00 | 0.00 | 91 | |
| 20260502231003 | 54 | 285 | 14.0 | 17.0 | 0.00 | 0.00 | 0.00 | 94 | |
| 20260502230004 | 54 | 285 | 12.0 | 16.0 | 0.00 | 0.00 | 0.00 | 93 | |
| 20260502225002 | 54 | 300 | 12.0 | 17.0 | 0.00 | 0.00 | 0.00 | 92 | |
| 20260502224003 | 54 | 300 | 13.0 | 18.0 | 0.00 | 0.00 | 0.00 | 91 | |
| 20260502223003 | 54 | 305 | 12.0 | 17.0 | 0.00 | 0.00 | 0.00 | 91 | |
| 20260502222003 | 54 | 300 | 9.0 | 16.0 | 0.00 | 0.00 | 0.00 | 89 |